• In Hungary
  • List of Countries
  • For 7 days
  • Water Temperature
  • Satellite Maps
  • Weather Map
  • News
  • Weather Widgets
  • user-avatar
    Login

    Hourly Weather Austin

    Today, 23 June, Saturday

    Time Temperature Precipitation Wind Pressure Humidity
    00:00 +28°C° 0 mm 5 mps 740 mmHg 87%
    01:00 +27°C° 0 mm 5 mps 740 mmHg 87%
    02:00 +27°C° 0 mm 5 mps 740 mmHg 88%
    03:00 +27°C° 0 mm 5 mps 740 mmHg 88%
    04:00 +26°C° 0 mm 5 mps 740 mmHg 87%
    05:00 +26°C° 0 mm 5 mps 740 mmHg 87%
    06:00 +28°C° 0 mm 6 mps 740 mmHg 78%
    07:00 +29°C° 0 mm 6 mps 740 mmHg 69%
    08:00 +32°C° 0 mm 6 mps 741 mmHg 60%
    09:00 +34°C° 0 mm 6 mps 741 mmHg 54%
    10:00 +35°C° 0 mm 6 mps 741 mmHg 49%
    11:00 +38°C° 0 mm 6 mps 741 mmHg 44%
    12:00 +39°C° 0 mm 7 mps 740 mmHg 43%
    13:00 +39°C° 0 mm 7 mps 739 mmHg 42%
    14:00 +40°C° 0 mm 7 mps 739 mmHg 41%
    15:00 +39°C° 0 mm 7 mps 739 mmHg 45%
    16:00 +38°C° 0 mm 7 mps 739 mmHg 50%
    17:00 +36°C° 0 mm 7 mps 738 mmHg 54%
    18:00 +34°C° 0 mm 7 mps 739 mmHg 62%
    19:00 +32°C° 0 mm 7 mps 739 mmHg 70%
    20:00 +29°C° 0 mm 7 mps 739 mmHg 77%
    21:00 +29°C° 0 mm 7 mps 739 mmHg 81%
    22:00 +28°C° 0 mm 7 mps 740 mmHg 84%
    23:00 +27°C° 0 mm 7 mps 740 mmHg 88%

    Tomorrow, 24 June, Sunday

    Time Temperature Precipitation Wind Pressure Humidity
    00:00 +27°C° 0 mm 7 mps 740 mmHg 86%
    01:00 +28°C° 0 mm 8 mps 740 mmHg 83%
    02:00 +28°C° 0 mm 8 mps 740 mmHg 81%
    03:00 +27°C° 0 mm 7 mps 740 mmHg 83%
    04:00 +27°C° 0 mm 6 mps 740 mmHg 85%
    05:00 +27°C° 0 mm 5 mps 740 mmHg 87%
    06:00 +28°C° 0 mm 6 mps 741 mmHg 82%
    07:00 +29°C° 0 mm 6 mps 741 mmHg 77%
    08:00 +30°C° 0 mm 7 mps 741 mmHg 72%
    09:00 +32°C° 0 mm 7 mps 741 mmHg 66%
    10:00 +34°C° 0 mm 7 mps 742 mmHg 60%
    11:00 +37°C° 0 mm 8 mps 742 mmHg 54%
    12:00 +37°C° 0 mm 8 mps 741 mmHg 52%
    13:00 +38°C° 0 mm 8 mps 741 mmHg 50%
    14:00 +39°C° 0 mm 8 mps 741 mmHg 48%
    15:00 +38°C° 0 mm 8 mps 741 mmHg 51%
    16:00 +37°C° 0 mm 8 mps 740 mmHg 54%
    17:00 +35°C° 0 mm 8 mps 740 mmHg 57%
    18:00 +34°C° 0 mm 7 mps 740 mmHg 63%
    19:00 +32°C° 0 mm 7 mps 741 mmHg 69%
    20:00 +29°C° 0 mm 7 mps 741 mmHg 74%
    21:00 +28°C° 0 mm 6 mps 741 mmHg 78%
    22:00 +28°C° 0 mm 6 mps 742 mmHg 81%
    23:00 +27°C° 0 mm 6 mps 742 mmHg 85%

    Day after tomorrow, 25 June, Monday

    Time Temperature Precipitation Wind Pressure Humidity
    00:00 +27°C° 0 mm 6 mps 742 mmHg 86%
    01:00 +27°C° 0 mm 6 mps 742 mmHg 88%
    02:00 +26°C° 0 mm 6 mps 742 mmHg 89%
    03:00 +26°C° 0 mm 5 mps 742 mmHg 89%
    04:00 +26°C° 0 mm 5 mps 742 mmHg 89%
    05:00 +26°C° 0 mm 5 mps 743 mmHg 89%
    06:00 +28°C° 0 mm 6 mps 743 mmHg 82%
    07:00 +29°C° 0 mm 7 mps 743 mmHg 75%
    08:00 +32°C° 0 mm 8 mps 744 mmHg 68%
    09:00 +33°C° 0 mm 7 mps 744 mmHg 63%
    10:00 +34°C° 0 mm 7 mps 744 mmHg 58%
    11:00 +35°C° 0 mm 7 mps 744 mmHg 53%
    12:00 +35°C° 0 mm 7 mps 744 mmHg 52%
    13:00 +35°C° 0 mm 6 mps 743 mmHg 51%
    14:00 +36°C° 0 mm 6 mps 743 mmHg 50%
    15:00 +35°C° 0.1 mm 6 mps 743 mmHg 53%
    16:00 +35°C° 0.1 mm 6 mps 743 mmHg 56%
    17:00 +34°C° 0.1 mm 6 mps 743 mmHg 58%
    18:00 +33°C° 0 mm 5 mps 743 mmHg 65%
    19:00 +32°C° 0 mm 5 mps 744 mmHg 71%
    20:00 +29°C° 0 mm 5 mps 744 mmHg 77%
    21:00 +29°C° 0 mm 5 mps 744 mmHg 82%
    22:00 +28°C° 0 mm 5 mps 744 mmHg 86%
    23:00 +27°C° 0 mm 4 mps 744 mmHg 91%

    26 June, Tuesday

    Time Temperature Precipitation Wind Pressure Humidity
    00:00 +27°C° 0 mm 4 mps 744 mmHg 91%
    01:00 +27°C° 0 mm 4 mps 744 mmHg 91%
    02:00 +27°C° 0 mm 4 mps 744 mmHg 92%
    03:00 +27°C° 0 mm 4 mps 745 mmHg 92%
    04:00 +27°C° 0 mm 4 mps 745 mmHg 92%
    05:00 +27°C° 0 mm 4 mps 745 mmHg 92%
    06:00 +28°C° 0 mm 4 mps 745 mmHg 85%
    07:00 +29°C° 0 mm 4 mps 746 mmHg 79%
    08:00 +30°C° 0 mm 5 mps 746 mmHg 73%
    09:00 +32°C° 0 mm 4 mps 746 mmHg 68%
    10:00 +33°C° 0 mm 4 mps 746 mmHg 63%
    11:00 +34°C° 0 mm 4 mps 746 mmHg 59%
    12:00 +36°C° 0 mm 4 mps 745 mmHg 53%
    13:00 +37°C° 0 mm 4 mps 744 mmHg 47%
    14:00 +38°C° 0 mm 4 mps 744 mmHg 42%
    15:00 +39°C° 0 mm 5 mps 744 mmHg 43%
    16:00 +37°C° 0 mm 5 mps 744 mmHg 45%
    17:00 +36°C° 0 mm 5 mps 744 mmHg 47%
    18:00 +35°C° 0 mm 5 mps 744 mmHg 54%
    19:00 +33°C° 0 mm 5 mps 744 mmHg 61%
    20:00 +30°C° 0 mm 5 mps 745 mmHg 68%
    21:00 +29°C° 0 mm 5 mps 745 mmHg 74%
    22:00 +28°C° 0 mm 5 mps 745 mmHg 80%
    23:00 +27°C° 0 mm 4 mps 745 mmHg 86%

    27 June, Wednesday

    Time Temperature Precipitation Wind Pressure Humidity
    00:00 +26°C° 0 mm 4 mps 745 mmHg 89%
    01:00 +26°C° 0 mm 4 mps 744 mmHg 92%
    02:00 +25°C° 0 mm 3 mps 744 mmHg 95%
    03:00 +25°C° 0 mm 3 mps 744 mmHg 94%
    04:00 +25°C° 0 mm 3 mps 745 mmHg 93%
    05:00 +26°C° 0 mm 3 mps 745 mmHg 92%
    06:00 +27°C° 0 mm 4 mps 745 mmHg 84%
    07:00 +28°C° 0 mm 4 mps 745 mmHg 77%
    08:00 +30°C° 0 mm 4 mps 746 mmHg 69%
    09:00 +33°C° 0 mm 4 mps 745 mmHg 60%
    10:00 +35°C° 0 mm 4 mps 745 mmHg 50%
    11:00 +37°C° 0 mm 4 mps 745 mmHg 41%
    12:00 +38°C° 0 mm 4 mps 744 mmHg 38%
    13:00 +38°C° 0 mm 4 mps 744 mmHg 36%
    14:00 +40°C° 0 mm 4 mps 743 mmHg 33%
    15:00 +38°C° 0 mm 4 mps 743 mmHg 36%
    16:00 +38°C° 0 mm 4 mps 743 mmHg 38%
    17:00 +37°C° 0 mm 4 mps 743 mmHg 41%
    18:00 +35°C° 0 mm 5 mps 743 mmHg 49%
    19:00 +33°C° 0 mm 5 mps 743 mmHg 57%
    20:00 +32°C° 0 mm 5 mps 744 mmHg 65%
    21:00 +30°C° 0 mm 5 mps 744 mmHg 70%
    22:00 +29°C° 0 mm 5 mps 744 mmHg 76%
    23:00 +28°C° 0 mm 5 mps 744 mmHg 81%

    28 June, Thursday

    Time Temperature Precipitation Wind Pressure Humidity
    00:00 +27°C° 0 mm 4 mps 744 mmHg 84%
    01:00 +27°C° 0 mm 4 mps 744 mmHg 87%
    02:00 +26°C° 0 mm 4 mps 744 mmHg 90%
    03:00 +26°C° 0 mm 4 mps 744 mmHg 91%
    04:00 +26°C° 0 mm 4 mps 744 mmHg 92%
    05:00 +25°C° 0 mm 3 mps 744 mmHg 94%
    06:00 +27°C° 0 mm 4 mps 744 mmHg 84%
    07:00 +29°C° 0 mm 4 mps 744 mmHg 75%
    08:00 +32°C° 0 mm 5 mps 745 mmHg 65%
    09:00 +34°C° 0 mm 5 mps 744 mmHg 57%
    10:00 +35°C° 0 mm 5 mps 744 mmHg 49%
    11:00 +37°C° 0 mm 5 mps 744 mmHg 41%
    12:00 +39°C° 0 mm 5 mps 743 mmHg 39%
    13:00 +39°C° 0 mm 5 mps 743 mmHg 37%
    14:00 +40°C° 0 mm 6 mps 742 mmHg 36%
    15:00 +39°C° 0 mm 6 mps 742 mmHg 39%
    16:00 +39°C° 0 mm 6 mps 742 mmHg 42%
    17:00 +38°C° 0 mm 6 mps 742 mmHg 46%
    18:00 +35°C° 0 mm 6 mps 742 mmHg 53%
    19:00 +33°C° 0 mm 6 mps 743 mmHg 61%
    20:00 +30°C° 0 mm 6 mps 743 mmHg 69%
    21:00 +29°C° 0 mm 6 mps 743 mmHg 74%
    22:00 +28°C° 0 mm 5 mps 743 mmHg 80%
    23:00 +27°C° 0 mm 5 mps 744 mmHg 85%
    Show more